EW1914 Weather Reports


Display with metric or nautical units.
time (UTC)temp
F
wind
direction
speed
MPH
gust
MPH
rain 1hr
in
rain 24hr
in
rain mn
in
humidity
%
barometer
mb
20260507094957 55 0.0 0.0 0.00 0.00 0.00 78 1020.6
20260507092958 55 0.0 0.0 0.00 0.00 0.00 77 1020.7
20260507090957 55 0.0 0.0 0.00 0.00 0.00 77 1020.9
20260507090001 55 0.0 0.0 0.00 0.00 0.00 77 1020.9
20260507083958 55 0.0 0.0 0.00 0.00 0.00 77 1020.9
20260507081958 55 0.0 0.0 0.00 0.00 0.00 77 1020.9
20260507080957 55 0.0 0.0 0.00 0.00 0.00 77 1020.9
20260507080001 56 0.0 0.0 0.00 0.00 0.00 78 1020.8
20260507074000 56 0.0 0.0 0.00 0.00 0.00 79 1020.9
20260507073012 56 0.0 0.0 0.00 0.00 0.00 79 1020.8
20260507071959 56 0.0 0.0 0.00 0.00 0.00 79 1020.7
20260507070958 56 0.0 0.0 0.00 0.00 0.00 79 1020.7
20260507070002 56 0.0 0.0 0.00 0.00 0.00 79 1020.7
20260507064000 56 0.0 0.0 0.00 0.00 0.00 79 1020.7
20260507063000 56 0.0 0.0 0.00 0.00 0.00 78 1020.7
20260507061959 56 0.0 0.0 0.00 0.00 0.00 78 1020.8
20260507060001 56 0.0 0.0 0.00 0.00 0.00 79 1020.8
20260507055000 57 0.0 0.0 0.00 0.00 0.00 79 1020.9
20260507053959 57 0.0 0.0 0.00 0.00 0.00 80 1020.8
20260507053003 57 0.0 0.0 0.00 0.00 0.00 79 1020.8
20260507051000 57 0.0 0.0 0.00 0.00 0.00 78 1020.8
20260507050001 58 0.0 0.0 0.00 0.00 0.00 77 1020.8
20260507043959 58 0.0 0.0 0.00 0.00 0.00 77 1020.7
20260507041959 59 0.0 0.0 0.00 0.00 0.00 76 1020.6
20260507040959 59 0.0 0.0 0.00 0.00 0.00 76 1020.5
20260507040005 60 0.0 0.0 0.00 0.00 0.00 76 1020.4
20260507035000 60 0.0 0.0 0.00 0.00 0.00 76 1020.3
20260507034000 60 0.0 0.0 0.00 0.00 0.00 75 1020.2
20260507033000 60 0.0 0.0 0.00 0.00 0.00 75 1020.0
20260507031959 61 0.0 0.0 0.00 0.00 0.00 75 1019.9
20260507030959 61 0.0 0.0 0.00 0.00 0.00 75 1019.7
20260507030003 61 0.0 0.0 0.00 0.00 0.00 75 1019.6
20260507024959 62 0.0 0.0 0.00 0.00 0.00 74 1019.5
20260507023958 62 0.0 0.0 0.00 0.00 0.00 74 1019.4
20260507023000 62 0.0 0.0 0.00 0.00 0.00 74 1019.4
20260507021959 63 0.0 0.0 0.00 0.00 0.00 73 1019.3
20260507020959 63 0.0 0.0 0.00 0.00 0.00 73 1019.4
20260507020002 63 0.0 0.0 0.00 0.00 0.00 73 1019.4
20260507014959 64 0.0 0.0 0.00 0.00 0.00 72 1019.5
20260507013959 64 0.0 0.0 0.00 0.00 0.00 72 1019.5
20260507013000 64 0.0 0.0 0.00 0.00 0.00 71 1019.6
20260507012000 65 0.0 0.0 0.00 0.00 0.00 71 1019.6
20260507010001 66 0.0 0.0 0.00 0.00 0.00 70 1019.4
20260507005000 66 0.0 0.0 0.00 0.00 0.00 68 1019.5
20260507003959 66 0.0 0.0 0.00 0.00 0.00 68 1019.4
20260507003002 67 0.0 0.0 0.00 0.00 0.00 67 1019.4
20260507001959 68 0.0 0.0 0.00 0.00 0.00 68 1019.2
20260507000959 68 0.0 0.0 0.00 0.00 0.00 67 1019.2
20260507000000 69 0.0 0.0 0.00 0.00 0.00 69 1019.1
20260506234007 69 0.0 0.0 0.00 0.00 0.00 70 1019.0
20260506233002 69 0.0 0.0 0.00 0.00 0.00 70 1019.0
20260506231959 69 0.0 0.0 0.00 0.00 0.00 69 1019.1
20260506230959 69 0.0 0.0 0.00 0.00 0.00 69 1019.0
20260506230000 69 0.0 0.0 0.00 0.00 0.00 69 1019.1
20260506223958 68 0.0 0.0 0.00 0.00 0.00 70 1019.4
20260506222959 68 0.0 0.0 0.00 0.00 0.00 68 1019.5
20260506221959 68 0.0 0.0 0.00 0.00 0.00 69 1019.6
20260506220959 68 0.0 0.0 0.00 0.00 0.00 70 1019.6
20260506220005 67 0.0 0.0 0.00 0.00 0.00 71 1019.7
20260506215000 67 0.0 0.0 0.00 0.00 0.00 69 1019.7
20260506213959 67 0.0 0.0 0.00 0.00 0.00 71 1019.5
20260506211959 66 0.0 0.0 0.00 0.00 0.00 74 1019.8
20260506211000 65 0.0 0.0 0.00 0.00 0.00 74 1020.0
20260506204959 65 0.0 0.0 0.00 0.00 0.00 77 1020.0
20260506203959 64 0.0 0.0 0.00 0.00 0.00 75 1020.1
20260506203000 64 0.0 0.0 0.00 0.00 0.00 79 1020.0
20260506201958 63 0.0 0.0 0.00 0.00 0.00 79 1020.0
20260506200959 63 0.0 0.0 0.00 0.00 0.00 78 1020.1
20260506193958 62 0.0 0.0 0.00 0.00 0.00 80 1020.5
20260506193000 62 0.0 0.0 0.00 0.00 0.00 79 1020.5
20260506191957 62 0.0 0.0 0.00 0.00 0.00 80 1020.5
20260506190000 61 0.0 0.0 0.00 0.00 0.00 82 1020.3
20260506184958 61 0.0 0.0 0.00 0.00 0.00 83 1020.3
20260506183958 61 0.0 0.0 0.00 0.00 0.00 83 1020.4
20260506182959 60 0.0 0.0 0.00 0.00 0.00 83 1020.3
20260506181957 60 0.0 0.0 0.00 0.00 0.00 82 1020.3
20260506180959 60 0.0 0.0 0.00 0.00 0.00 82 1020.3
20260506180002 60 0.0 0.0 0.00 0.00 0.00 81 1020.3
20260506174959 59 0.0 0.0 0.00 0.00 0.00 83 1020.3
20260506173959 59 0.0 0.0 0.00 0.00 0.00 83 1020.3
20260506173000 59 0.0 0.0 0.00 0.00 0.00 83 1020.2
20260506171959 59 0.0 0.0 0.00 0.00 0.00 83 1020.0
20260506170958 59 0.0 0.0 0.00 0.00 0.00 83 1020.1
20260506170001 58 0.0 0.0 0.00 0.00 0.00 84 1020.1
20260506164957 58 0.0 0.0 0.00 0.00 0.00 84 1020.2
20260506163957 58 0.0 0.0 0.00 0.00 0.00 85 1020.1
20260506162959 58 0.0 0.0 0.00 0.00 0.00 85 1020.1
20260506161957 58 0.0 0.0 0.00 0.00 0.00 85 1020.1
20260506160958 57 0.0 0.0 0.00 0.00 0.00 85 1019.9
20260506160000 57 0.0 0.0 0.00 0.00 0.00 85 1020.0
20260506153957 57 0.0 0.0 0.00 0.00 0.00 86 1019.4
20260506151958 57 0.0 0.0 0.00 0.00 0.00 85 1020.0
20260506150958 57 0.0 0.0 0.00 0.00 0.00 86 1020.2
20260506150006 57 0.0 0.0 0.00 0.00 0.00 86 1020.1
20260506144959 57 0.0 0.0 0.00 0.00 0.00 86 1020.1
20260506135959 57 0.0 0.0 0.00 0.00 0.00 86 1019.3
20260506134959 57 0.0 0.0 0.00 0.00 0.00 87 1019.2
20260506133958 57 0.0 0.0 0.00 0.00 0.00 87 1019.1
20260506132959 57 0.0 0.0 0.00 0.00 0.00 87 1019.0
20260506131958 57 0.0 0.0 0.00 0.00 0.00 86 1019.0
20260506130958 57 0.0 0.0 0.00 0.00 0.00 86 1018.8
20260506125959 57 0.0 0.0 0.00 0.00 0.00 86 1018.7
20260506124958 57 0.0 0.0 0.00 0.00 0.00 86 1018.6
20260506123958 57 0.0 0.0 0.00 0.00 0.00 86 1018.5
20260506122959 57 0.0 0.0 0.00 0.00 0.00 86 1018.5
20260506121957 57 0.0 0.0 0.00 0.00 0.00 86 1018.6
20260506114959 58 0.0 0.0 0.00 0.00 0.00 85 1018.5
20260506113959 58 0.0 0.0 0.00 0.00 0.00 85 1018.3
20260506112959 58 0.0 0.0 0.00 0.00 0.00 85 1018.3
20260506111958 58 0.0 0.0 0.00 0.00 0.00 85 1018.2
20260506110958 58 0.0 0.0 0.00 0.00 0.00 84 1018.1
20260506105959 58 0.0 0.0 0.00 0.00 0.00 84 1018.0
20260506104957 58 0.0 0.0 0.00 0.00 0.00 84 1017.8
20260506103958 58 0.0 0.0 0.00 0.00 0.00 84 1017.7
20260506102958 58 0.0 0.0 0.00 0.00 0.00 84 1017.6
20260506101959 58 0.0 0.0 0.00 0.00 0.00 83 1017.5
20260506095959 58 0.0 0.0 0.00 0.00 0.00 83 1017.3